When you browse on this site, cookies collect data to enhance your experience and personalize the content and advertising you see.
Visit our Privacy Policy to learn more. By continuing to use the site, you agree to this use of cookies and data.
  • In Portugal
  • List of Countries
  • For 7 days
  • Water Temperature
  • Satellite Maps
  • Weather Map
  • Weather Widgets
  • user-avatar
    Login

    Hourly Weather Dolinovka

    Today, 19 April, Friday

    Time Temperature Precipitation Wind Pressure Humidity
    00:00 -1°C° 0 mm 2 mps 765 mmHg 43%
    01:00 -1°C° 0 mm 2 mps 764 mmHg 45%
    02:00 -1°C° 0 mm 2 mps 764 mmHg 46%
    03:00 -2°C° 0 mm 2 mps 764 mmHg 49%
    04:00 -1°C° 0 mm 2 mps 764 mmHg 48%
    05:00 -1°C° 0 mm 2 mps 765 mmHg 48%
    06:00 -1°C° 0 mm 2 mps 765 mmHg 47%
    07:00 +2°C° 0 mm 2 mps 765 mmHg 42%
    08:00 +3°C° 0 mm 2 mps 764 mmHg 37%
    09:00 +3°C° 0 mm 3 mps 764 mmHg 31%
    10:00 +4°C° 0 mm 3 mps 764 mmHg 29%
    11:00 +5°C° 0 mm 3 mps 764 mmHg 27%
    12:00 +7°C° 0 mm 3 mps 764 mmHg 26%
    13:00 +7°C° 0 mm 3 mps 763 mmHg 26%
    14:00 +7°C° 0 mm 3 mps 763 mmHg 27%
    15:00 +8°C° 0 mm 3 mps 763 mmHg 27%
    16:00 +7°C° 0 mm 3 mps 763 mmHg 32%
    17:00 +7°C° 0 mm 3 mps 762 mmHg 36%
    18:00 +5°C° 0 mm 3 mps 762 mmHg 40%
    19:00 +5°C° 0 mm 2 mps 762 mmHg 44%
    20:00 +5°C° 0 mm 1 mps 763 mmHg 48%
    21:00 +4°C° 0 mm 1 mps 763 mmHg 52%
    22:00 +4°C° 0 mm 1 mps 763 mmHg 53%
    23:00 +3°C° 0 mm 1 mps 763 mmHg 55%

    Tomorrow, 20 April, Saturday

    Time Temperature Precipitation Wind Pressure Humidity
    00:00 +3°C° 0 mm 1 mps 763 mmHg 56%
    01:00 +3°C° 0 mm 1 mps 763 mmHg 57%
    02:00 +1°C° 0 mm 0 mps 763 mmHg 58%
    03:00 +1°C° 0 mm 0 mps 763 mmHg 58%
    04:00 +2°C° 0 mm 0 mps 763 mmHg 57%
    05:00 +2°C° 0 mm 0 mps 763 mmHg 56%
    06:00 +3°C° 0 mm 0 mps 763 mmHg 54%
    07:00 +5°C° 0 mm 1 mps 763 mmHg 50%
    08:00 +6°C° 0 mm 1 mps 763 mmHg 45%
    09:00 +8°C° 0 mm 1 mps 763 mmHg 41%
    10:00 +9°C° 0 mm 1 mps 763 mmHg 38%
    11:00 +10°C° 0 mm 1 mps 763 mmHg 36%
    12:00 +10°C° 0 mm 1 mps 763 mmHg 34%
    13:00 +11°C° 0 mm 1 mps 763 mmHg 33%
    14:00 +11°C° 0 mm 1 mps 763 mmHg 32%
    15:00 +11°C° 0 mm 1 mps 763 mmHg 31%
    16:00 +10°C° 0 mm 2 mps 762 mmHg 34%
    17:00 +10°C° 0 mm 2 mps 762 mmHg 36%
    18:00 +9°C° 0 mm 2 mps 762 mmHg 38%
    19:00 +8°C° 0 mm 2 mps 763 mmHg 43%
    20:00 +7°C° 0 mm 2 mps 763 mmHg 47%
    21:00 +7°C° 0 mm 1 mps 764 mmHg 51%
    22:00 +7°C° 0 mm 1 mps 764 mmHg 54%
    23:00 +6°C° 0 mm 1 mps 764 mmHg 57%

    Day after tomorrow, 21 April, Sunday

    Time Temperature Precipitation Wind Pressure Humidity
    00:00 +6°C° 0 mm 1 mps 764 mmHg 60%
    01:00 +6°C° 0 mm 1 mps 764 mmHg 62%
    02:00 +6°C° 0 mm 1 mps 764 mmHg 65%
    03:00 +5°C° 0 mm 1 mps 764 mmHg 67%
    04:00 +5°C° 0 mm 1 mps 764 mmHg 68%
    05:00 +6°C° 0 mm 1 mps 764 mmHg 68%
    06:00 +6°C° 0 mm 1 mps 764 mmHg 69%
    07:00 +7°C° 0 mm 1 mps 764 mmHg 64%
    08:00 +7°C° 0 mm 2 mps 764 mmHg 60%
    09:00 +9°C° 0 mm 2 mps 764 mmHg 55%
    10:00 +9°C° 0.1 mm 2 mps 764 mmHg 51%
    11:00 +10°C° 0.1 mm 2 mps 764 mmHg 48%
    12:00 +12°C° 0.1 mm 2 mps 764 mmHg 44%
    13:00 +12°C° 0 mm 2 mps 763 mmHg 44%
    14:00 +12°C° 0 mm 2 mps 763 mmHg 44%
    15:00 +12°C° 0 mm 2 mps 763 mmHg 43%
    16:00 +12°C° 0 mm 2 mps 763 mmHg 45%
    17:00 +10°C° 0 mm 2 mps 763 mmHg 47%
    18:00 +10°C° 0 mm 2 mps 763 mmHg 49%
    19:00 +9°C° 0 mm 2 mps 763 mmHg 54%
    20:00 +8°C° 0 mm 2 mps 763 mmHg 58%
    21:00 +7°C° 0 mm 2 mps 763 mmHg 62%
    22:00 +7°C° 0 mm 2 mps 763 mmHg 64%
    23:00 +6°C° 0 mm 2 mps 763 mmHg 66%

    22 April, Monday

    Time Temperature Precipitation Wind Pressure Humidity
    00:00 +6°C° 0 mm 1 mps 763 mmHg 68%
    01:00 +6°C° 0 mm 1 mps 763 mmHg 70%
    02:00 +5°C° 0 mm 2 mps 763 mmHg 71%
    03:00 +4°C° 0 mm 2 mps 763 mmHg 73%
    04:00 +5°C° 0 mm 2 mps 763 mmHg 72%
    05:00 +5°C° 0 mm 2 mps 763 mmHg 71%
    06:00 +5°C° 0 mm 2 mps 763 mmHg 70%
    07:00 +7°C° 0 mm 2 mps 763 mmHg 64%
    08:00 +9°C° 0 mm 3 mps 763 mmHg 58%
    09:00 +11°C° 0 mm 3 mps 763 mmHg 53%
    10:00 +12°C° 0 mm 3 mps 763 mmHg 48%
    11:00 +14°C° 0 mm 4 mps 762 mmHg 44%
    12:00 +15°C° 0 mm 4 mps 762 mmHg 40%
    13:00 +15°C° 0 mm 4 mps 762 mmHg 40%
    14:00 +14°C° 0 mm 4 mps 761 mmHg 41%
    15:00 +14°C° 0 mm 4 mps 761 mmHg 41%
    16:00 +13°C° 0 mm 4 mps 761 mmHg 44%
    17:00 +13°C° 0 mm 3 mps 761 mmHg 47%
    18:00 +12°C° 0 mm 3 mps 761 mmHg 50%
    19:00 +12°C° 0 mm 3 mps 761 mmHg 51%
    20:00 +11°C° 0 mm 3 mps 761 mmHg 52%
    21:00 +11°C° 0 mm 3 mps 761 mmHg 54%
    22:00 +10°C° 0 mm 3 mps 761 mmHg 56%
    23:00 +10°C° 0 mm 4 mps 760 mmHg 58%

    23 April, Tuesday

    Time Temperature Precipitation Wind Pressure Humidity
    00:00 +10°C° 0 mm 4 mps 760 mmHg 60%
    01:00 +9°C° 0 mm 3 mps 760 mmHg 64%
    02:00 +8°C° 0 mm 3 mps 760 mmHg 67%
    03:00 +7°C° 0 mm 3 mps 760 mmHg 71%
    04:00 +7°C° 0 mm 3 mps 760 mmHg 70%
    05:00 +8°C° 0 mm 3 mps 760 mmHg 68%
    06:00 +7°C° 0 mm 4 mps 760 mmHg 66%
    07:00 +8°C° 0 mm 4 mps 760 mmHg 62%
    08:00 +10°C° 0 mm 4 mps 760 mmHg 58%
    09:00 +11°C° 0 mm 4 mps 760 mmHg 55%
    10:00 +12°C° 0 mm 5 mps 760 mmHg 55%
    11:00 +12°C° 0 mm 5 mps 760 mmHg 56%
    12:00 +13°C° 0 mm 6 mps 760 mmHg 56%
    13:00 +13°C° 0 mm 5 mps 760 mmHg 58%
    14:00 +13°C° 0 mm 5 mps 759 mmHg 60%
    15:00 +12°C° 0 mm 5 mps 759 mmHg 62%
    16:00 +12°C° 0 mm 4 mps 759 mmHg 62%
    17:00 +12°C° 0 mm 4 mps 759 mmHg 62%
    18:00 +12°C° 0 mm 3 mps 759 mmHg 62%
    19:00 +11°C° 0 mm 3 mps 760 mmHg 66%
    20:00 +10°C° 0 mm 2 mps 760 mmHg 70%
    21:00 +9°C° 0 mm 2 mps 760 mmHg 75%
    22:00 +9°C° 0 mm 2 mps 760 mmHg 77%
    23:00 +9°C° 0 mm 2 mps 760 mmHg 79%

    24 April, Wednesday

    Time Temperature Precipitation Wind Pressure Humidity
    00:00 +8°C° 0 mm 2 mps 760 mmHg 81%
    01:00 +8°C° 0 mm 2 mps 760 mmHg 83%
    02:00 +8°C° 0 mm 2 mps 760 mmHg 84%
    03:00 +7°C° 0 mm 2 mps 760 mmHg 86%
    04:00 +8°C° 0 mm 2 mps 760 mmHg 85%
    05:00 +8°C° 0 mm 3 mps 760 mmHg 84%
    06:00 +8°C° 0 mm 3 mps 760 mmHg 83%
    07:00 +10°C° 0 mm 3 mps 760 mmHg 76%
    08:00 +12°C° 0 mm 3 mps 760 mmHg 69%
    09:00 +13°C° 0 mm 4 mps 760 mmHg 62%
    10:00 +14°C° 0 mm 4 mps 760 mmHg 61%
    11:00 +14°C° 0 mm 4 mps 760 mmHg 59%
    12:00 +15°C° 0 mm 5 mps 760 mmHg 58%
    13:00 +15°C° 0 mm 5 mps 760 mmHg 57%
    14:00 +16°C° 0 mm 5 mps 760 mmHg 56%
    15:00 +17°C° 0 mm 4 mps 759 mmHg 55%
    16:00 +17°C° 0 mm 4 mps 759 mmHg 58%
    17:00 +16°C° 0 mm 3 mps 759 mmHg 61%
    18:00 +16°C° 0 mm 2 mps 760 mmHg 65%
    19:00 +15°C° 0 mm 2 mps 760 mmHg 70%
    20:00 +14°C° 0 mm 2 mps 760 mmHg 74%
    21:00 +13°C° 0 mm 2 mps 760 mmHg 79%
    22:00 +12°C° 0 mm 2 mps 760 mmHg 82%
    23:00 +12°C° 0 mm 2 mps 761 mmHg 86%
    Show more